Probability
0 0 0 0 0 0 0 0 0 0 0 0 0 0 0 0 0 0 0 0 0 0 0 0 0 0 0 0 0 0 0 0 0 0 0 0 0 0 0 0 0 0 0
0 0 0 0 0 0 0 0 0 0 0 0 0 0 0 0 0 0 0 0 0 0 0 0 0 0 0 0 0 0 0 0 0 0 0 0 0 0 0 0 0 0 0
0 0 0 0 0 0 0 0 0 0 0 0 0 0 0 0 0 0 0 0 0 0 0 0 0 0 0 0 0 0 0 0 0 0 0 0 0 0 0 0 0 0 0
0 0 0 0 0 0 0 0 0 0 0 0 0 0 0 0 0 0 0 0 0 0 0 0 0 0 0 0 0 0 0 0 0 0 0 0 0 0 0 0 0 0 0
0 0 0 0 0 0 0 0 0 0 0 0 0 0 0 0 0 0 0 0 0 0 0 0 0 0 0 0 0 0 0 0 0 0 0 0 0 0 0 0 0 0 0
0 0 0 0 0 0 0 0 0 0 0 0 0 0 0 0 0 0 0 0 0 0 0 0 0 0 0 0 0 0 0 0 0 0 0 0 0 0 0 0 0 0 0
0 0 0 0 0 0 0 0 0 0 0 0 0 0 0 0 0 0 0 0 0 0 0 0 0 0 0 0 0 0 0 0 0 0 0 0 0 0 0 0 0 0 0
0 0 0 0 0 0 0 0 0 0 0 0 0 0 0 0 0 0 0 0 0 0 0 0 0 0 0 0 0 0 0 0 0 0 0 0 0 0 0 0 0 0 0
0 0 0 0 0 0 0 0 0 0 0 0 0 0 0 0 0 0 0 0 0 0 0 0 0 0 0 0 0 0 0 0 0 0 0 0 0 0 0 0 0 0 0
0 0 0 0 0 0 0 0 0 0 0 0 0 0 0 0 0 0 0 0 0 0 0 0 0 0 0 0 0 0 0 0 0 0 0 0 0 0 0 0 0 0 0
0 0 0 0 0 0 0 0 0 0 0 0 0 0 0 0 0 0 0 0 0 0 0 0 0 0 0 0 0 0 0 0 0 0 0 0 0 0 0 0 0 0 0
0 0 0 0 0 0 0 0 0 0 0 0 0 0 0 0 0 0 0 0 0 0 0 0 0 0 0 0 0 0 0 0 0 0 0 0 0 0 0 0 0 0 0
0 0 0 0 0 0 0 0 0 0 0 0 0 0 0 0 0 0 0 0 0 0 0 0 0 0 0 0 0 0 0 0 0 0 0 0 0 0 0 0 0 0 0
0 0 0 0 0 0 0 0 0 0 0 0 0 0 0 0 0 0 0 0 0 0 0 0 0 0 0 0 0 0 0 0 0 0 0 0 0 0 0 0 0 0 0
0 0 0 0 0 0 0 0 0 0 0 0 0 0 0 0 0 0 0 0 0 0 0 0 0 0 0 0 0 0 0 0 0 0 0 0 0 0 0 0 0 0 0
0 0 0 0 0 0 0 0 0 0 0 0 0 0 0 0 0 0 0 0 0 0 0 0 0 0 0 0 0 0 0 0 0 0 0 0 0 0 0 0 0 0 0
0 0 0 0 0 0 0 0 0 0 0 0 0 0 0 0 0 0 0 0 0 0 0 0 0 0 0 0 0 0 0 0 0 0 0 0 0 0 0 0 0 0 0
0 0 0 0 0 0 0 0 0 0 0 0 0 0 0 0 0 0 0 0 0 0 0 0 0 0 0 0 0 0 0 0 0 0 0 0 0 0 0 0 0 0 0
0 0 0 0 0 0 0 0 0 0 0 0 0 0 0 0 0 0 0 0 0 0 0 0 0 0 0 0 0 0 0 0 0 0 0 0 0 0 0 0 0 0 0
0 0 0 0 0 0 0 0 0 0 0 0 0 0 0 0 0 0 0 0 0 0 0 0 0 0 0 0 0 0 0 0 0 0 0 0 0 0 0 0 0 0 0
0 0 0 0 0 0 0 0 0 0 0 0 0 0 0 0 0 0 0 0 0 0 0 0 0 0 0 0 0 0 0 0 0 0 0 0 0 0 0 0 0 0 0
0 0 0 0 0 0 0 0 0 0 0 0 0 0 0 0 0 0 0 0 0 0 0 0 0 0 0 0 0 0 0 0 0 0 0 0 0 0 0 0 0 0 0
0 0 0 0 0 0 0 0 0 0 0 0 0 0 0 0 0 0 0 0 0 0 0 0 0 0 0 0 0 0 0 0 0 0 0 0 0 0 0 0 0 0 0
0 0 0 0 0 0 0 0 0 0 0 0 0 0 0 0 0 0 0 0 0 0 0 0 0 0 0 0 0 0 0 0 0 0 0 0 0 0 0 0 0 0 0
0 0 0 0 0 0 0 0 0 0 0 0 0 0 0 0 0 0 0 0 0 0 0 0 0 0 0 0 0 0 0 0 0 0 0 0 0 0 0 0 0 0 0
0 0 0 0 0 0 0 0 0 0 0 0 0 0 0 0 0 0 0 0 0 0 0 0 0 0 0 0 0 0 0 0 0 0 0 0 0 0 0 0 0 0 0
Wind_Speed
5 7 12 14 14 14 14 13 12 12 12 12 13 12 12 13 12 12 12 12 13 13 13 13 13 12 12 12 13 12 12 12 12 12 11 11 10 11 11 11 10 6 11
9 9 13 13 15 14 14 13 12 12 12 13 13 12 12 12 12 12 12 12 12 12 12 12 12 11 11 11 11 11 10 10 10 10 10 8 8 9 9 9 8 6 9
10 9 11 13 14 14 14 13 12 12 12 12 12 12 12 11 11 11 11 11 11 11 11 11 11 10 9 9 9 9 8 8 8 8 8 5 4 7 7 7 7 8 8
11 9 9 12 13 14 14 13 12 12 11 12 12 11 11 11 11 11 10 10 10 10 10 10 9 9 8 8 8 8 8 7 7 7 4 4 3 4 5 6 6 6 6
9 8 9 12 13 14 14 13 12 12 11 11 11 11 11 10 10 10 9 9 8 8 8 8 8 8 7 6 7 7 7 7 7 6 3 3 3 4 4 4 5 5 5
8 7 9 12 14 14 14 13 12 12 11 11 11 11 10 10 9 9 8 8 7 7 7 7 6 6 5 5 5 6 6 6 6 3 3 3 3 4 4 3 3 3 3
9 7 8 12 12 13 13 13 12 11 11 11 11 10 10 9 9 8 8 7 6 6 5 5 5 4 3 4 4 5 5 5 3 2 2 3 4 5 4 3 3 3 3
9 8 7 11 11 11 11 11 11 11 10 10 10 10 9 9 8 7 7 6 6 5 4 4 3 2 2 2 3 4 4 4 3 2 2 3 6 7 6 5 5 5 5
7 7 6 7 8 10 10 9 9 9 9 9 9 8 8 7 7 6 5 6 6 5 4 3 2 1 1 1 2 3 3 3 2 1 2 3 7 8 8 7 7 6 7
6 7 7 6 6 6 6 8 8 8 8 8 8 7 7 6 5 5 4 4 4 4 4 3 2 2 2 2 3 3 3 2 1 2 2 4 8 9 9 8 8 8 8
8 7 7 7 6 6 5 6 7 7 8 7 6 7 6 3 3 3 4 4 3 3 4 4 3 3 2 3 4 4 3 1 2 2 3 6 9 10 10 10 10 10 10
12 11 8 8 7 6 5 4 4 4 4 4 4 4 3 3 3 3 4 4 4 3 4 4 4 3 2 1 3 3 1 2 2 3 4 9 10 11 11 11 11 11 11
11 11 10 9 8 7 5 4 3 2 3 4 5 5 4 3 2 2 1 2 2 3 2 3 2 1 2 2 2 2 3 2 2 3 4 9 11 12 13 13 13 12 12
10 12 11 10 9 8 6 4 4 3 3 3 4 5 4 3 3 3 2 2 2 2 2 2 2 3 3 3 3 4 4 3 3 3 4 9 11 12 13 13 13 13 12
11 12 11 11 10 9 7 5 6 5 5 5 4 5 5 4 4 4 3 3 3 3 3 3 3 3 4 4 4 4 5 5 4 4 4 8 11 12 13 13 13 13 12
13 12 11 12 11 9 8 7 6 6 5 5 5 6 7 5 5 4 4 4 4 3 3 3 4 4 3 3 4 4 5 5 5 5 4 5 9 11 12 13 12 12 12
11 10 11 11 11 11 10 9 6 6 6 6 6 6 7 6 6 5 4 4 4 4 4 3 4 3 3 3 4 5 4 5 5 5 5 4 4 7 9 11 11 11 11
8 10 11 10 11 12 10 9 6 6 7 6 6 6 8 8 7 6 5 5 4 4 4 3 3 3 3 3 4 4 4 4 5 5 4 4 3 3 5 8 9 9 10
10 10 10 11 11 12 10 8 7 6 7 6 6 6 7 8 8 7 6 5 5 4 4 4 4 3 4 4 4 4 4 4 5 4 4 4 4 3 3 4 6 6 8
9 9 10 10 10 9 7 5 5 6 6 6 6 7 8 7 8 8 6 6 5 4 5 4 5 4 3 3 3 4 4 4 4 4 4 3 3 3 2 2 2 3 5
8 9 10 11 10 8 7 7 7 8 7 6 6 7 8 8 8 8 6 6 6 6 6 6 4 4 4 2 2 3 4 4 4 3 3 2 2 2 1 1 1 1 2
9 10 10 11 10 10 9 7 5 4 4 5 4 6 7 8 8 7 8 6 6 5 6 6 5 3 3 3 2 2 3 3 2 2 1 1 1 1 1 1 1 1 1
9 10 9 11 10 10 9 4 3 3 2 3 5 6 7 8 7 7 7 7 6 6 6 6 6 6 4 3 4 3 2 3 3 2 1 0 0 0 1 1 1 1 1
9 8 9 9 9 9 9 8 9 8 8 8 5 4 4 5 6 6 6 6 6 6 6 6 6 5 5 4 3 4 4 3 2 3 1 1 1 1 1 1 1 1 1
6 6 6 7 7 7 9 11 10 9 7 4 3 4 4 4 5 5 6 5 5 5 6 5 5 6 5 5 4 3 4 4 4 4 4 2 1 1 1 1 1 1 2
3 4 5 5 6 6 8 9 11 11 9 6 5 5 4 3 3 4 5 5 5 5 5 5 5 6 5 5 4 4 3 3 3 4 5 4 3 1 1 1 1 1 2
Wind_Direction
165 164 162 157 152 146 142 136 135 134 129 126 124 120 116 113 111 108 105 101 97 94 91 90 88 87 84 84 82 79 74 69 66 66 67 70 74 76 74 70 64 54 64
150 158 158 157 152 148 145 141 139 137 135 130 128 126 122 117 113 110 108 104 100 98 95 93 91 89 87 87 85 80 75 70 66 63 58 55 62 76 76 73 69 65 63
143 152 155 156 153 150 148 146 144 141 137 135 132 129 126 123 121 117 112 110 106 103 101 98 95 92 90 88 84 79 77 72 68 62 50 29 34 67 73 70 63 60 57
144 149 153 154 154 153 151 150 150 147 143 141 138 134 131 128 125 121 118 116 113 110 107 103 99 96 94 89 81 76 73 71 69 58 38 18 9 48 63 63 58 52 47
142 145 151 154 157 157 155 154 154 152 149 148 145 142 139 135 131 128 126 122 118 117 113 108 103 97 93 87 79 72 67 66 62 52 32 16 3 21 40 48 48 41 31
142 144 153 156 161 162 160 159 160 158 158 157 153 149 148 143 140 137 135 130 123 120 118 112 104 97 91 81 72 66 60 60 58 42 21 1 348 353 12 21 20 18 8
146 146 156 159 162 164 165 165 165 165 164 163 160 155 154 150 147 145 143 141 136 129 123 119 110 98 86 73 59 53 50 54 59 32 4 341 321 326 334 336 332 325 324
150 149 156 161 162 164 167 170 170 167 165 162 161 159 156 156 157 157 155 154 153 149 144 135 126 110 89 53 34 33 38 40 36 7 339 322 311 313 312 313 312 309 306
148 150 156 161 165 167 170 172 172 170 168 165 164 161 156 157 161 162 163 168 170 171 171 171 171 180 267 325 350 7 14 23 32 336 319 308 305 306 306 303 302 299 298
157 162 163 165 165 166 171 177 176 176 173 171 168 162 160 162 161 160 164 179 191 194 197 200 203 234 276 298 321 335 344 5 345 315 303 295 299 299 300 301 299 297 294
178 179 174 173 171 169 171 180 180 180 181 177 173 170 163 159 158 164 180 195 210 217 220 225 230 245 270 301 312 318 331 315 298 287 281 288 296 297 298 300 298 297 294
189 190 186 183 180 174 179 171 174 177 177 173 168 169 163 163 172 179 200 213 224 233 240 244 249 256 267 293 303 313 301 286 278 273 275 287 294 297 298 298 297 295 293
191 191 191 190 186 182 180 172 173 172 173 176 178 176 170 170 176 184 188 221 234 238 240 256 268 256 248 252 268 275 273 275 265 266 273 284 290 294 295 296 296 293 291
190 196 194 191 191 191 185 182 180 182 184 187 188 182 174 177 189 193 198 206 211 211 217 229 238 247 254 255 258 267 272 266 261 260 266 275 284 290 294 295 297 297 296
197 200 198 194 195 194 190 191 190 194 195 195 191 189 185 187 197 199 204 206 211 208 213 224 234 246 255 261 259 260 265 265 263 259 266 272 278 286 291 294 296 298 300
205 203 198 198 198 194 196 197 196 196 197 195 199 198 193 194 196 198 207 210 213 212 214 218 227 236 245 251 263 261 260 263 261 260 257 269 273 280 287 292 295 299 302
206 203 200 201 199 199 201 201 199 197 196 203 206 203 201 200 200 201 207 212 214 209 211 219 233 237 250 253 261 263 262 261 262 261 259 258 267 276 281 288 293 297 302
205 204 205 202 200 203 203 200 201 198 200 206 205 204 206 206 203 202 209 216 207 200 203 213 223 235 248 253 262 264 261 262 262 261 258 255 255 264 276 284 290 296 302
208 206 205 203 202 204 203 200 200 197 203 206 204 207 208 208 206 206 214 215 200 202 209 214 217 218 242 253 259 265 263 260 261 262 259 258 254 256 262 285 291 299 304
213 208 208 205 206 200 195 193 196 204 210 208 208 211 207 208 206 208 215 213 201 208 215 213 220 218 229 243 263 271 265 260 258 257 258 260 259 261 269 282 294 307 313
213 209 208 205 203 191 188 195 201 211 211 210 212 210 208 208 205 207 213 211 207 214 219 214 216 223 229 212 256 288 276 259 255 258 255 255 274 284 309 307 311 315 319
215 213 210 208 202 197 200 196 193 189 199 206 206 209 210 209 207 207 210 212 210 215 219 214 209 213 215 187 199 271 307 323 315 279 273 263 286 339 351 342 344 324 310
218 215 211 209 205 202 196 173 158 157 165 191 207 213 214 210 209 209 210 212 211 211 220 218 210 213 226 209 199 208 244 268 306 311 329 3 8 24 329 350 358 339 332
221 217 213 209 205 200 189 185 190 198 207 213 209 207 199 200 207 210 210 210 215 216 222 220 213 215 217 225 211 216 224 208 247 296 301 344 36 7 330 349 345 337 332
220 211 208 205 205 199 193 194 195 206 214 204 180 185 195 197 204 209 209 211 217 221 225 223 217 217 217 223 215 203 221 228 224 245 270 275 324 309 304 305 321 333 342
229 211 201 193 205 201 194 195 198 204 204 191 188 196 200 200 205 211 208 211 217 221 224 224 219 218 220 221 221 212 204 211 215 226 249 265 265 254 256 303 342 345 346